GW5596 Weather Reports


time (UTC)temp
C
wind
direction
speed
KPH
gust
KPH
rain 1hr
cm
rain 24hr
cm
rain mn
cm
humidity
%
barometer
mb
20260505063047 5 0 0.0 0.0 0.00 0.41 0.00 94 1012.1
20260505061603 5 0 0.0 0.0 0.00 0.41 0.00 94 1012.2
20260505060039 5 0 0.0 0.0 0.00 0.41 0.00 94 1012.3
20260505054538 5 0 0.0 0.0 0.03 0.41 0.41 94 1012.5
20260505053041 5 0 0.0 0.0 0.08 0.41 0.41 93 1012.5
20260505051556 5 0 0.0 0.0 0.18 0.41 0.41 93 1012.7
20260505041537 5 0 0.0 0.0 0.03 0.23 0.23 91 1013.2
20260505040039 5 0 0.0 0.0 0.00 0.20 0.20 90 1013.2
20260505034536 5 0 0.0 0.0 0.10 0.20 0.20 90 1012.7
20260505033037 6 0 0.0 0.0 0.13 0.20 0.20 87 1012.3
20260505031539 6 0 0.0 0.0 0.13 0.20 0.20 86 1012.5
20260505030037 6 0 0.0 6.4 0.13 0.20 0.20 87 1011.9
20260505024541 6 0 0.0 0.0 0.00 0.08 0.08 84 1012.0
20260505023035 6 0 0.0 0.0 0.00 0.08 0.08 82 1011.9
20260505021537 7 0 0.0 1.6 0.00 0.08 0.08 80 1011.5
20260505020037 7 274 0.0 3.2 0.00 0.08 0.08 78 1011.4
20260505014537 7 0 0.0 1.6 0.00 0.08 0.08 77 1011.5
20260505013036 7 0 0.0 4.8 0.00 0.08 0.08 75 1011.5
20260505011534 7 110 3.2 9.7 0.08 0.08 0.08 74 1011.7
20260505010038 8 103 6.4 12.9 0.08 0.08 0.08 73 1011.6
20260505004536 8 0 0.0 4.8 0.08 0.08 0.08 73 1011.6
20260505003035 8 0 0.0 12.9 0.08 0.08 0.08 75 1011.7
20260505001535 10 110 6.4 14.5 0.00 0.00 0.00 56 1011.8
20260505000043 11 282 1.6 11.3 0.00 0.00 0.00 52 1011.3
20260504234539 12 106 3.2 11.3 0.00 0.00 0.00 44 1010.7
20260504233042 12 295 3.2 11.3 0.00 0.00 0.00 42 1010.4
20260504231542 13 98 3.2 11.3 0.00 0.00 0.00 38 1010.1
20260504230046 15 108 3.2 14.5 0.00 0.00 0.00 33 1009.2
20260504224534 16 91 6.4 17.7 0.00 0.00 0.00 28 1008.7
20260504223038 16 316 4.8 12.9 0.00 0.00 0.00 29 1008.7
20260504221535 16 82 3.2 9.7 0.00 0.00 0.00 31 1008.9
20260504220038 16 51 9.7 20.9 0.00 0.00 0.00 29 1008.9
20260504214535 17 94 3.2 14.5 0.00 0.00 0.00 28 1008.8
20260504213035 17 3 3.2 11.3 0.00 0.00 0.00 29 1009.2
20260504211537 16 111 4.8 16.1 0.00 0.00 0.00 31 1009.3
20260504210043 16 36 3.2 9.7 0.00 0.00 0.00 32 1009.7
20260504204538 16 14 1.6 11.3 0.00 0.00 0.00 32 1009.4
20260504203050 16 316 4.8 12.9 0.00 0.00 0.00 31 1009.4
20260504201535 16 89 3.2 9.7 0.00 0.00 0.00 30 1009.5
20260504200035 16 357 3.2 16.1 0.00 0.00 0.00 29 1009.4
20260504194535 18 321 0.0 6.4 0.00 0.00 0.00 21 1009.1
20260504193035 19 139 8.0 16.1 0.00 0.00 0.00 20 1009.3
20260504191536 18 196 4.8 9.7 0.00 0.00 0.00 22 1009.6
20260504190047 19 311 3.2 16.1 0.00 0.00 0.00 24 1009.6
20260504184535 18 234 3.2 16.1 0.00 0.00 0.00 23 1009.7
20260504183037 20 0 3.2 11.3 0.00 0.00 0.00 19 1009.7
20260504181541 18 340 1.6 20.9 0.00 0.00 0.00 24 1010.1
20260504180036 17 308 6.4 11.3 0.00 0.00 0.00 21 1010.3
20260504174536 18 297 3.2 12.9 0.00 0.00 0.00 19 1010.3
20260504173035 17 0 3.2 14.5 0.00 0.00 0.00 23 1010.7
20260504171536 17 0 3.2 25.7 0.00 0.00 0.00 24 1010.9
20260504081540 0 0 0.0 0.0 0.00 0.00 0.00 71 1013.7